| time (UTC) | temp F | wind direction | speed MPH | gust MPH | rain 1hr in | rain 24hr in | rain mn in | humidity % | barometer mb |
| 20260504130632 | 57 | 192 | 7.0 | 11.0 | 0.00 | 0.22 | 0.22 | 88 | 1009.2 |
| 20260504130128 | 57 | 207 | 4.0 | 6.0 | 0.00 | 0.22 | 0.22 | 88 | 1009.2 |
| 20260504081616 | 57 | 311 | 2.0 | 2.0 | 0.05 | 0.13 | 0.13 | 84 | 1008.6 |
| 20260504081112 | 58 | 326 | 4.0 | 4.0 | 0.12 | 0.13 | 0.13 | 83 | 1008.7 |
| 20260504080609 | 58 | 206 | 12.0 | 16.0 | 0.07 | 0.12 | 0.12 | 81 | 1009.1 |
| 20260504080105 | 57 | 252 | 7.0 | 9.0 | 0.00 | 0.11 | 0.11 | 87 | 1009.9 |
| 20260504050421 | 57 | 168 | 3.0 | 3.0 | 0.00 | 0.00 | 0.00 | 78 | 1010.2 |
| 20260504045919 | 57 | 153 | 3.0 | 3.0 | 0.00 | 0.00 | 0.00 | 78 | 1010.2 |
| 20260504045414 | 57 | 108 | 2.0 | 3.0 | 0.00 | 0.00 | 0.00 | 76 | 1009.8 |
| 20260504044911 | 57 | 112 | 0.0 | 1.0 | 0.00 | 0.00 | 0.00 | 77 | 1009.8 |
| 20260504044408 | 57 | 113 | 1.0 | 2.0 | 0.00 | 0.00 | 0.00 | 77 | 1009.8 |
| 20260504043906 | 58 | 116 | 1.0 | 2.0 | 0.00 | 0.00 | 0.00 | 76 | 1009.8 |
| 20260504043402 | 58 | 125 | 2.0 | 2.0 | 0.00 | 0.00 | 0.00 | 76 | 1010.2 |
| 20260504042900 | 58 | 136 | 3.0 | 3.0 | 0.00 | 0.00 | 0.00 | 76 | 1010.2 |
| 20260504042356 | 58 | 148 | 1.0 | 1.0 | 0.00 | 0.00 | 0.00 | 76 | 1010.5 |
| 20260504041852 | 59 | 124 | 1.0 | 2.0 | 0.00 | 0.00 | 0.00 | 75 | 1010.6 |
| 20260504041348 | 59 | 157 | 3.0 | 3.0 | 0.00 | 0.00 | 0.00 | 74 | 1010.6 |
| 20260504040845 | 58 | 107 | 0.0 | 0.0 | 0.00 | 0.00 | 0.00 | 78 | 1010.4 |
| 20260504040342 | 58 | 102 | 0.0 | 0.0 | 0.00 | 0.00 | 0.00 | 76 | 1010.9 |
| 20260504035838 | 58 | 102 | 0.0 | 0.0 | 0.00 | 0.00 | 0.00 | 76 | 1010.7 |
| 20260504035337 | 59 | 121 | 0.0 | 0.0 | 0.00 | 0.00 | 0.00 | 75 | 1011.0 |
| 20260504034832 | 59 | 150 | 0.0 | 0.0 | 0.00 | 0.00 | 0.00 | 75 | 1010.9 |
| 20260504034325 | 59 | 148 | 1.0 | 2.0 | 0.00 | 0.00 | 0.00 | 75 | 1010.9 |
| 20260504033821 | 60 | 150 | 2.0 | 3.0 | 0.00 | 0.00 | 0.00 | 73 | 1010.7 |
| 20260504033320 | 60 | 153 | 1.0 | 2.0 | 0.00 | 0.00 | 0.00 | 72 | 1010.7 |
| 20260504032815 | 60 | 143 | 2.0 | 2.0 | 0.00 | 0.00 | 0.00 | 72 | 1010.8 |
| 20260504032313 | 61 | 146 | 2.0 | 3.0 | 0.00 | 0.00 | 0.00 | 71 | 1010.8 |
| 20260504031809 | 61 | 144 | 2.0 | 3.0 | 0.00 | 0.00 | 0.00 | 71 | 1011.0 |
| 20260504031307 | 61 | 131 | 2.0 | 4.0 | 0.00 | 0.00 | 0.00 | 69 | 1011.0 |
| 20260504030802 | 61 | 104 | 2.0 | 3.0 | 0.00 | 0.00 | 0.00 | 69 | 1010.8 |
| 20260504030300 | 61 | 177 | 2.0 | 2.0 | 0.00 | 0.00 | 0.00 | 69 | 1010.7 |
| 20260504025755 | 61 | 117 | 2.0 | 2.0 | 0.00 | 0.00 | 0.00 | 69 | 1010.8 |
| 20260504025253 | 62 | 91 | 0.0 | 1.0 | 0.00 | 0.00 | 0.00 | 70 | 1011.0 |
| 20260504024749 | 62 | 148 | 1.0 | 1.0 | 0.00 | 0.00 | 0.00 | 68 | 1011.1 |
| 20260504024246 | 62 | 137 | 1.0 | 2.0 | 0.00 | 0.00 | 0.00 | 67 | 1011.0 |
| 20260504023743 | 63 | 105 | 0.0 | 1.0 | 0.00 | 0.00 | 0.00 | 65 | 1010.6 |
| 20260504023239 | 63 | 184 | 1.0 | 1.0 | 0.00 | 0.00 | 0.00 | 64 | 1010.7 |
| 20260504022735 | 64 | 53 | 1.0 | 1.0 | 0.00 | 0.00 | 0.00 | 64 | 1010.9 |
| 20260504022231 | 64 | 270 | 0.0 | 1.0 | 0.00 | 0.00 | 0.00 | 62 | 1011.2 |
| 20260504021729 | 64 | 252 | 1.0 | 2.0 | 0.00 | 0.00 | 0.00 | 62 | 1011.0 |
| 20260504021226 | 64 | 168 | 2.0 | 2.0 | 0.00 | 0.00 | 0.00 | 62 | 1010.9 |
| 20260504020723 | 64 | 116 | 2.0 | 3.0 | 0.00 | 0.00 | 0.00 | 61 | 1010.7 |
| 20260504020219 | 64 | 140 | 4.0 | 6.0 | 0.00 | 0.00 | 0.00 | 62 | 1010.7 |
| 20260504015716 | 65 | 139 | 2.0 | 2.0 | 0.00 | 0.00 | 0.00 | 61 | 1010.8 |
| 20260504015212 | 65 | 133 | 4.0 | 4.0 | 0.00 | 0.00 | 0.00 | 59 | 1010.8 |
| 20260504014708 | 65 | 129 | 3.0 | 3.0 | 0.00 | 0.00 | 0.00 | 59 | 1010.8 |
| 20260504014205 | 64 | 135 | 2.0 | 2.0 | 0.00 | 0.00 | 0.00 | 63 | 1010.6 |
| 20260504013703 | 64 | 126 | 2.0 | 2.0 | 0.00 | 0.00 | 0.00 | 63 | 1010.6 |
| 20260504013159 | 64 | 9 | 1.0 | 2.0 | 0.00 | 0.00 | 0.00 | 61 | 1010.7 |
| 20260504012656 | 64 | 151 | 0.0 | 0.0 | 0.00 | 0.00 | 0.00 | 63 | 1010.2 |
| 20260504012154 | 64 | 157 | 2.0 | 3.0 | 0.00 | 0.00 | 0.00 | 63 | 1010.1 |
| 20260504011651 | 65 | 145 | 2.0 | 3.0 | 0.00 | 0.00 | 0.00 | 62 | 1010.3 |
| 20260504011148 | 65 | 144 | 1.0 | 2.0 | 0.00 | 0.00 | 0.00 | 61 | 1010.1 |
| 20260504010643 | 65 | 127 | 2.0 | 3.0 | 0.00 | 0.00 | 0.00 | 62 | 1009.8 |
| 20260504010139 | 65 | 133 | 3.0 | 4.0 | 0.00 | 0.00 | 0.00 | 59 | 1010.4 |
| 20260504005636 | 66 | 237 | 0.0 | 0.0 | 0.00 | 0.00 | 0.00 | 59 | 1010.7 |
| 20260504005128 | 66 | 163 | 2.0 | 2.0 | 0.00 | 0.00 | 0.00 | 58 | 1010.1 |
| 20260504004626 | 66 | 167 | 2.0 | 2.0 | 0.00 | 0.00 | 0.00 | 56 | 1010.4 |
| 20260504004122 | 66 | 169 | 2.0 | 3.0 | 0.00 | 0.00 | 0.00 | 58 | 1010.1 |
| 20260504003619 | 66 | 165 | 1.0 | 2.0 | 0.00 | 0.00 | 0.00 | 58 | 1010.3 |
| 20260504003110 | 66 | 158 | 2.0 | 3.0 | 0.00 | 0.00 | 0.00 | 57 | 1010.5 |
| 20260504002607 | 66 | 136 | 3.0 | 4.0 | 0.00 | 0.00 | 0.00 | 57 | 1010.2 |
| 20260504002105 | 67 | 165 | 2.0 | 2.0 | 0.00 | 0.00 | 0.00 | 55 | 1010.3 |
| 20260504001602 | 67 | 143 | 4.0 | 7.0 | 0.00 | 0.00 | 0.00 | 53 | 1010.3 |
| 20260504001058 | 67 | 163 | 3.0 | 3.0 | 0.00 | 0.00 | 0.00 | 54 | 1010.3 |
| 20260504000555 | 68 | 164 | 3.0 | 3.0 | 0.00 | 0.00 | 0.00 | 53 | 1010.2 |
| 20260504000053 | 68 | 153 | 3.0 | 3.0 | 0.00 | 0.00 | 0.00 | 51 | 1010.4 |
| 20260503235551 | 68 | 172 | 3.0 | 3.0 | 0.00 | 0.00 | 0.00 | 53 | 1010.3 |
| 20260503235047 | 68 | 170 | 2.0 | 3.0 | 0.00 | 0.00 | 0.00 | 52 | 1010.5 |
| 20260503234545 | 68 | 145 | 3.0 | 4.0 | 0.00 | 0.00 | 0.00 | 51 | 1010.2 |
| 20260503234043 | 68 | 114 | 4.0 | 6.0 | 0.00 | 0.00 | 0.00 | 52 | 1010.3 |
| 20260503233539 | 68 | 163 | 5.0 | 7.0 | 0.00 | 0.00 | 0.00 | 50 | 1010.2 |
| 20260503233035 | 69 | 184 | 4.0 | 6.0 | 0.00 | 0.00 | 0.00 | 51 | 1010.3 |
| 20260503232533 | 69 | 164 | 5.0 | 6.0 | 0.00 | 0.00 | 0.00 | 50 | 1010.3 |
| 20260503232030 | 69 | 196 | 4.0 | 4.0 | 0.00 | 0.00 | 0.00 | 49 | 1010.3 |
| 20260503231528 | 70 | 136 | 5.0 | 7.0 | 0.00 | 0.00 | 0.00 | 48 | 1010.7 |
| 20260503231024 | 70 | 150 | 7.0 | 10.0 | 0.00 | 0.00 | 0.00 | 46 | 1010.7 |
| 20260503230521 | 70 | 150 | 4.0 | 4.0 | 0.00 | 0.00 | 0.00 | 46 | 1010.6 |
| 20260503230018 | 70 | 171 | 5.0 | 7.0 | 0.00 | 0.00 | 0.00 | 45 | 1010.6 |
| 20260503225514 | 70 | 184 | 5.0 | 6.0 | 0.00 | 0.00 | 0.00 | 45 | 1010.7 |
| 20260503225009 | 70 | 191 | 8.0 | 11.0 | 0.00 | 0.00 | 0.00 | 45 | 1010.8 |
| 20260503224507 | 71 | 176 | 6.0 | 9.0 | 0.00 | 0.00 | 0.00 | 44 | 1010.9 |
| 20260503223959 | 71 | 182 | 7.0 | 9.0 | 0.00 | 0.00 | 0.00 | 43 | 1010.8 |
| 20260503223457 | 71 | 182 | 12.0 | 15.0 | 0.00 | 0.00 | 0.00 | 43 | 1011.1 |
| 20260503222952 | 71 | 171 | 9.0 | 11.0 | 0.00 | 0.00 | 0.00 | 44 | 1011.0 |
| 20260503222451 | 71 | 196 | 11.0 | 14.0 | 0.00 | 0.00 | 0.00 | 43 | 1011.0 |
| 20260503221948 | 71 | 184 | 9.0 | 11.0 | 0.00 | 0.00 | 0.00 | 45 | 1011.1 |
| 20260503221446 | 72 | 200 | 14.0 | 15.0 | 0.00 | 0.00 | 0.00 | 42 | 1011.2 |
| 20260503220943 | 71 | 202 | 12.0 | 21.0 | 0.00 | 0.00 | 0.00 | 42 | 1011.3 |
| 20260503220439 | 71 | 235 | 12.0 | 16.0 | 0.00 | 0.00 | 0.00 | 42 | 1011.3 |
| 20260503215936 | 71 | 196 | 11.0 | 13.0 | 0.00 | 0.00 | 0.00 | 43 | 1011.4 |
| 20260503215433 | 71 | 178 | 7.0 | 10.0 | 0.00 | 0.00 | 0.00 | 44 | 1011.3 |
| 20260503214931 | 71 | 196 | 11.0 | 16.0 | 0.00 | 0.00 | 0.00 | 41 | 1011.4 |
| 20260503214428 | 71 | 202 | 12.0 | 16.0 | 0.00 | 0.00 | 0.00 | 41 | 1011.4 |
| 20260503213925 | 71 | 191 | 10.0 | 11.0 | 0.00 | 0.00 | 0.00 | 43 | 1011.8 |
| 20260503213424 | 71 | 245 | 9.0 | 11.0 | 0.00 | 0.00 | 0.00 | 43 | 1011.5 |
| 20260503212920 | 71 | 181 | 9.0 | 13.0 | 0.00 | 0.00 | 0.00 | 43 | 1011.3 |
| 20260503212417 | 71 | 234 | 11.0 | 16.0 | 0.00 | 0.00 | 0.00 | 40 | 1010.9 |
| 20260503211915 | 71 | 224 | 12.0 | 18.0 | 0.00 | 0.00 | 0.00 | 40 | 1011.3 |
| 20260503211412 | 70 | 187 | 10.0 | 13.0 | 0.00 | 0.00 | 0.00 | 44 | 1011.6 |
| 20260503210907 | 70 | 205 | 14.0 | 21.0 | 0.00 | 0.00 | 0.00 | 44 | 1011.8 |
| 20260503210404 | 70 | 214 | 13.0 | 16.0 | 0.00 | 0.00 | 0.00 | 43 | 1012.0 |
| 20260503205858 | 70 | 136 | 11.0 | 17.0 | 0.00 | 0.00 | 0.00 | 43 | 1012.0 |
| 20260503205355 | 69 | 173 | 11.0 | 14.0 | 0.00 | 0.00 | 0.00 | 44 | 1012.0 |
| 20260503204852 | 69 | 192 | 15.0 | 22.0 | 0.00 | 0.00 | 0.00 | 42 | 1011.9 |
| 20260503204349 | 69 | 108 | 8.0 | 11.0 | 0.00 | 0.00 | 0.00 | 44 | 1012.1 |
| 20260503203846 | 69 | 199 | 11.0 | 16.0 | 0.00 | 0.00 | 0.00 | 44 | 1011.7 |
| 20260503203344 | 69 | 214 | 9.0 | 13.0 | 0.00 | 0.00 | 0.00 | 42 | 1012.0 |
| 20260503202841 | 68 | 179 | 17.0 | 22.0 | 0.00 | 0.00 | 0.00 | 43 | 1012.0 |
| 20260503202339 | 68 | 208 | 13.0 | 18.0 | 0.00 | 0.00 | 0.00 | 45 | 1012.0 |
| 20260503201837 | 68 | 178 | 9.0 | 13.0 | 0.00 | 0.00 | 0.00 | 43 | 1012.1 |
| 20260503201333 | 68 | 151 | 9.0 | 11.0 | 0.00 | 0.00 | 0.00 | 43 | 1012.1 |
| 20260503200831 | 68 | 202 | 10.0 | 15.0 | 0.00 | 0.00 | 0.00 | 42 | 1012.2 |
| 20260503200326 | 68 | 171 | 17.0 | 21.0 | 0.00 | 0.00 | 0.00 | 44 | 1012.2 |
| 20260503195824 | 67 | 177 | 14.0 | 17.0 | 0.00 | 0.00 | 0.00 | 44 | 1012.5 |
| 20260503195320 | 67 | 194 | 12.0 | 17.0 | 0.00 | 0.00 | 0.00 | 43 | 1012.3 |
| 20260503194818 | 67 | 176 | 10.0 | 15.0 | 0.00 | 0.00 | 0.00 | 46 | 1012.3 |
| 20260503194314 | 67 | 187 | 15.0 | 19.0 | 0.00 | 0.00 | 0.00 | 46 | 1012.7 |
| 20260503193810 | 67 | 188 | 23.0 | 27.0 | 0.00 | 0.00 | 0.00 | 43 | 1012.9 |
| 20260503193306 | 67 | 171 | 16.0 | 22.0 | 0.00 | 0.00 | 0.00 | 45 | 1012.5 |
| 20260503192802 | 67 | 164 | 15.0 | 24.0 | 0.00 | 0.00 | 0.00 | 46 | 1012.4 |
| 20260503192257 | 67 | 173 | 8.0 | 11.0 | 0.00 | 0.00 | 0.00 | 46 | 1012.6 |
| 20260503191754 | 67 | 170 | 9.0 | 15.0 | 0.00 | 0.00 | 0.00 | 44 | 1012.9 |
| 20260503191251 | 66 | 200 | 21.0 | 24.0 | 0.00 | 0.00 | 0.00 | 43 | 1012.9 |
| 20260503190748 | 66 | 192 | 15.0 | 18.0 | 0.00 | 0.00 | 0.00 | 44 | 1013.3 |
| 20260503190245 | 64 | 238 | 17.0 | 24.0 | 0.00 | 0.00 | 0.00 | 47 | 1013.7 |
| 20260503185742 | 64 | 194 | 14.0 | 21.0 | 0.00 | 0.00 | 0.00 | 48 | 1014.0 |
| 20260503185238 | 65 | 172 | 16.0 | 22.0 | 0.00 | 0.00 | 0.00 | 45 | 1014.3 |
| 20260503184732 | 65 | 218 | 13.0 | 15.0 | 0.00 | 0.00 | 0.00 | 48 | 1014.4 |
| 20260503184229 | 64 | 201 | 13.0 | 17.0 | 0.00 | 0.00 | 0.00 | 48 | 1014.4 |
| 20260503183725 | 64 | 139 | 10.0 | 17.0 | 0.00 | 0.00 | 0.00 | 50 | 1014.5 |
| 20260503183223 | 64 | 185 | 11.0 | 14.0 | 0.00 | 0.00 | 0.00 | 49 | 1014.8 |
| 20260503182721 | 64 | 135 | 11.0 | 15.0 | 0.00 | 0.00 | 0.00 | 49 | 1014.7 |
| 20260503182219 | 64 | 144 | 9.0 | 11.0 | 0.00 | 0.00 | 0.00 | 50 | 1014.8 |
| 20260503181715 | 64 | 166 | 14.0 | 17.0 | 0.00 | 0.00 | 0.00 | 50 | 1015.1 |
| 20260503181213 | 65 | 139 | 12.0 | 15.0 | 0.00 | 0.00 | 0.00 | 48 | 1015.1 |
| 20260503180709 | 65 | 179 | 9.0 | 10.0 | 0.00 | 0.00 | 0.00 | 49 | 1015.2 |
| 20260503180208 | 65 | 193 | 14.0 | 19.0 | 0.00 | 0.00 | 0.00 | 51 | 1015.5 |
| 20260503175704 | 65 | 182 | 17.0 | 21.0 | 0.00 | 0.00 | 0.00 | 48 | 1015.9 |
| 20260503175202 | 65 | 199 | 16.0 | 19.0 | 0.00 | 0.00 | 0.00 | 47 | 1016.3 |
| 20260503174657 | 65 | 208 | 15.0 | 23.0 | 0.00 | 0.00 | 0.00 | 49 | 1016.5 |
| 20260503174155 | 64 | 199 | 9.0 | 10.0 | 0.00 | 0.00 | 0.00 | 50 | 1016.5 |
| 20260503173650 | 64 | 193 | 14.0 | 19.0 | 0.00 | 0.00 | 0.00 | 51 | 1016.6 |
| 20260503173146 | 64 | 212 | 12.0 | 23.0 | 0.00 | 0.00 | 0.00 | 51 | 1017.0 |
| 20260503172644 | 64 | 154 | 13.0 | 16.0 | 0.00 | 0.00 | 0.00 | 51 | 1017.0 |
| 20260503172141 | 64 | 210 | 16.0 | 21.0 | 0.00 | 0.00 | 0.00 | 49 | 1017.0 |
| 20260503171637 | 63 | 226 | 10.0 | 14.0 | 0.00 | 0.00 | 0.00 | 51 | 1017.1 |
| 20260503171135 | 62 | 163 | 9.0 | 13.0 | 0.00 | 0.00 | 0.00 | 56 | 1017.0 |
| 20260503170632 | 62 | 218 | 8.0 | 10.0 | 0.00 | 0.00 | 0.00 | 56 | 1017.1 |
| 20260503170128 | 62 | 134 | 2.0 | 3.0 | 0.00 | 0.00 | 0.00 | 56 | 1016.9 |
| 20260503150520 | 57 | 202 | 12.0 | 16.0 | 0.00 | 0.00 | 0.00 | 62 | 1018.6 |